Time,TemperatureF,DewpointF,PressureIn,WindDirection,WindDirectionDegrees,WindSpeedMPH,WindSpeedGustMPH,Humidity,HourlyPrecipIn,Conditions,Clouds,dailyrainin,SolarRadiationWatts/m^2,SoftwareType,DateUTC
2015-01-27 00:02:00,50.0,25.0,-100.00,North,-999,0.0,3.0,38,0.00,,,0.00,0.000000,,2015-01-27 08:02:00,
2015-01-27 00:11:00,50.0,25.0,-100.00,North,-999,0.0,3.0,38,0.00,,,0.00,0.000000,,2015-01-27 08:11:00,
2015-01-27 00:42:00,50.0,25.0,-100.00,North,-999,0.0,2.0,38,0.00,,,0.00,0.000000,,2015-01-27 08:42:00,
2015-01-27 00:52:00,50.0,25.0,-100.00,North,-999,0.0,2.0,38,0.00,,,0.00,0.000000,,2015-01-27 08:52:00,
2015-01-27 01:02:00,50.0,25.0,-100.00,North,-999,0.0,2.0,38,0.00,,,0.00,0.000000,,2015-01-27 09:02:00,
2015-01-27 01:12:00,50.0,25.0,-100.00,North,-999,0.0,2.0,38,0.00,,,0.00,0.000000,,2015-01-27 09:12:00,
2015-01-27 01:44:00,50.0,27.0,-100.00,NW,310,1.0,5.0,40,0.00,,,0.00,0.000000,,2015-01-27 09:44:00,
2015-01-27 01:54:00,50.0,27.0,-100.00,NW,310,1.0,5.0,40,0.00,,,0.00,0.000000,,2015-01-27 09:54:00,
2015-01-27 02:03:00,50.0,27.0,-100.00,NW,310,1.0,5.0,40,0.00,,,0.00,0.000000,,2015-01-27 10:03:00,
2015-01-27 02:13:00,50.0,27.0,-100.00,NW,310,1.0,5.0,40,0.00,,,0.00,0.000000,,2015-01-27 10:13:00,
2015-01-27 02:44:00,50.0,29.0,-100.00,North,-999,0.0,4.0,44,0.00,,,0.00,0.000000,,2015-01-27 10:44:00,
2015-01-27 02:54:00,50.0,29.0,-100.00,North,-999,0.0,4.0,44,0.00,,,0.00,0.000000,,2015-01-27 10:54:00,
2015-01-27 03:03:00,50.0,29.0,-100.00,North,-999,0.0,4.0,44,0.00,,,0.00,0.000000,,2015-01-27 11:03:00,
2015-01-27 03:13:00,50.0,29.0,-100.00,North,-999,0.0,4.0,44,0.00,,,0.00,0.000000,,2015-01-27 11:13:00,
2015-01-27 03:44:00,49.0,32.0,-100.00,WSW,244,1.0,7.0,52,0.00,,,0.00,0.000000,,2015-01-27 11:44:00,
2015-01-27 03:53:00,49.0,32.0,-100.00,WSW,244,1.0,7.0,52,0.00,,,0.00,0.000000,,2015-01-27 11:53:00,
2015-01-27 04:03:00,49.0,32.0,-100.00,WSW,244,1.0,7.0,52,0.00,,,0.00,0.000000,,2015-01-27 12:03:00,
2015-01-27 04:12:00,49.0,32.0,-100.00,WSW,244,1.0,7.0,52,0.00,,,0.00,0.000000,,2015-01-27 12:12:00,
2015-01-27 04:43:00,48.0,35.0,-100.00,SSW,197,3.0,10.0,61,0.00,,,0.00,0.000000,,2015-01-27 12:43:00,
2015-01-27 04:53:00,48.0,35.0,-100.00,SSW,197,3.0,10.0,61,0.00,,,0.00,0.000000,,2015-01-27 12:53:00,
2015-01-27 05:02:00,48.0,35.0,-100.00,SSW,197,3.0,10.0,61,0.00,,,0.00,0.000000,,2015-01-27 13:02:00,
2015-01-27 05:12:00,48.0,35.0,-100.00,SSW,197,3.0,10.0,61,0.00,,,0.00,0.000000,,2015-01-27 13:12:00,
2015-01-27 05:43:00,47.0,36.0,-100.00,SW,222,2.0,9.0,65,0.00,,,0.00,0.000000,,2015-01-27 13:43:00,
2015-01-27 05:52:00,47.0,36.0,-100.00,SW,222,2.0,9.0,65,0.00,,,0.00,0.000000,,2015-01-27 13:52:00,
2015-01-27 06:02:00,47.0,36.0,-100.00,SW,222,2.0,9.0,65,0.00,,,0.00,0.000000,,2015-01-27 14:02:00,
2015-01-27 06:12:00,47.0,36.0,-100.00,SW,222,2.0,9.0,65,0.00,,,0.00,0.000000,,2015-01-27 14:12:00,
2015-01-27 06:43:00,46.0,35.0,-100.00,North,-999,0.0,7.0,65,0.00,,,0.00,0.000000,,2015-01-27 14:43:00,
2015-01-27 06:53:00,46.0,35.0,-100.00,North,-999,0.0,7.0,65,0.00,,,0.00,0.000000,,2015-01-27 14:53:00,
2015-01-27 07:02:00,46.0,35.0,-100.00,North,-999,0.0,7.0,65,0.00,,,0.00,0.000000,,2015-01-27 15:02:00,
2015-01-27 07:12:00,46.0,35.0,-100.00,North,-999,0.0,7.0,65,0.00,,,0.00,0.000000,,2015-01-27 15:12:00,
2015-01-27 07:45:00,41.0,38.0,-100.00,NW,308,2.0,6.0,89,0.04,,,0.04,0.000000,,2015-01-27 15:45:00,
2015-01-27 07:55:00,41.0,38.0,-100.00,NW,308,2.0,6.0,89,0.04,,,0.04,0.000000,,2015-01-27 15:55:00,
2015-01-27 08:04:00,41.0,38.0,-100.00,NW,308,2.0,6.0,89,0.04,,,0.04,0.000000,,2015-01-27 16:04:00,
2015-01-27 08:13:00,41.0,38.0,-100.00,NW,308,2.0,6.0,89,0.04,,,0.04,0.000000,,2015-01-27 16:13:00,
2015-01-27 08:44:00,40.0,39.0,-100.00,North,-999,0.0,5.0,96,0.02,,,0.06,10.000000,,2015-01-27 16:44:00,
2015-01-27 08:54:00,40.0,39.0,-100.00,North,-999,0.0,5.0,96,0.02,,,0.06,10.000000,,2015-01-27 16:54:00,
2015-01-27 09:03:00,40.0,39.0,-100.00,North,-999,0.0,5.0,96,0.02,,,0.06,10.000000,,2015-01-27 17:03:00,
2015-01-27 09:12:00,40.0,39.0,-100.00,North,-999,0.0,5.0,96,0.02,,,0.06,10.000000,,2015-01-27 17:12:00,
2015-01-27 09:43:00,40.0,39.0,-100.00,North,-999,0.0,3.0,96,0.03,,,0.09,29.000000,,2015-01-27 17:43:00,
2015-01-27 09:53:00,40.0,39.0,-100.00,North,-999,0.0,3.0,96,0.03,,,0.09,29.000000,,2015-01-27 17:53:00,
2015-01-27 10:02:00,40.0,39.0,-100.00,North,-999,0.0,3.0,96,0.03,,,0.09,29.000000,,2015-01-27 18:02:00,
2015-01-27 10:13:00,40.0,39.0,-100.00,North,-999,0.0,3.0,96,0.03,,,0.09,29.000000,,2015-01-27 18:13:00,
2015-01-27 10:43:00,40.0,39.0,-100.00,North,-999,0.0,2.0,96,0.01,,,0.10,48.000000,,2015-01-27 18:43:00,
2015-01-27 10:54:00,40.0,39.0,-100.00,North,-999,0.0,2.0,96,0.01,,,0.10,48.000000,,2015-01-27 18:54:00,
2015-01-27 11:03:00,40.0,39.0,-100.00,North,-999,0.0,2.0,96,0.01,,,0.10,48.000000,,2015-01-27 19:03:00,
2015-01-27 11:13:00,40.0,39.0,-100.00,North,-999,0.0,2.0,96,0.01,,,0.10,48.000000,,2015-01-27 19:13:00,
2015-01-27 11:43:00,41.0,40.0,-100.00,North,-999,0.0,1.0,95,0.01,,,0.11,71.000000,,2015-01-27 19:43:00,
2015-01-27 11:52:00,41.0,40.0,-100.00,North,-999,0.0,1.0,95,0.01,,,0.11,71.000000,,2015-01-27 19:52:00,
2015-01-27 12:03:00,41.0,40.0,-100.00,North,-999,0.0,1.0,95,0.01,,,0.11,71.000000,,2015-01-27 20:03:00,
2015-01-27 12:12:00,41.0,40.0,-100.00,North,-999,0.0,1.0,95,0.01,,,0.11,71.000000,,2015-01-27 20:12:00,
2015-01-27 12:43:00,43.0,41.0,-100.00,ESE,111,2.0,5.0,93,0.02,,,0.13,129.000000,,2015-01-27 20:43:00,
2015-01-27 12:52:00,43.0,41.0,-100.00,ESE,111,2.0,5.0,93,0.02,,,0.13,129.000000,,2015-01-27 20:52:00,
2015-01-27 13:02:00,43.0,41.0,-100.00,ESE,111,2.0,5.0,93,0.02,,,0.13,129.000000,,2015-01-27 21:02:00,
2015-01-27 13:11:00,43.0,41.0,-100.00,ESE,111,2.0,5.0,93,0.02,,,0.13,129.000000,,2015-01-27 21:11:00,
2015-01-27 13:44:00,45.0,42.0,-100.00,North,-999,0.0,5.0,89,0.00,,,0.13,182.000000,,2015-01-27 21:44:00,
2015-01-27 13:53:00,45.0,42.0,-100.00,North,-999,0.0,5.0,89,0.00,,,0.13,182.000000,,2015-01-27 21:53:00,
2015-01-27 14:04:00,45.0,42.0,-100.00,North,-999,0.0,5.0,89,0.00,,,0.13,182.000000,,2015-01-27 22:04:00,
2015-01-27 14:13:00,45.0,42.0,-100.00,North,-999,0.0,5.0,89,0.00,,,0.13,182.000000,,2015-01-27 22:13:00,